| time (UTC) | temp C | wind direction | speed KPH | gust KPH | rain 1hr cm | rain 24hr cm | rain mn cm | humidity % | barometer mb |
| 20260507091520 | 10 | 12 | 1.6 | 1.6 | 0.30 | 0.15 | 0.15 | 93 | 1005.2 |
| 20260507091016 | 10 | 323 | 3.2 | 3.2 | 0.18 | 0.13 | 0.13 | 92 | 1005.2 |
| 20260507090512 | 10 | 349 | 0.0 | 1.6 | 0.30 | 0.13 | 0.13 | 92 | 1005.4 |
| 20260507090009 | 10 | 233 | 1.6 | 3.2 | 0.13 | 0.10 | 0.10 | 93 | 1005.2 |
| 20260507085506 | 10 | 208 | 3.2 | 4.8 | 0.00 | 0.08 | 0.08 | 93 | 1005.2 |
| 20260507085002 | 11 | 355 | 1.6 | 1.6 | 0.00 | 0.08 | 0.08 | 93 | 1005.5 |
| 20260507084459 | 11 | 305 | 6.4 | 6.4 | 0.18 | 0.08 | 0.08 | 92 | 1005.1 |
| 20260507083956 | 11 | 0 | 1.6 | 1.6 | 0.18 | 0.08 | 0.08 | 92 | 1004.9 |
| 20260507083452 | 11 | 3 | 0.0 | 1.6 | 0.00 | 0.05 | 0.05 | 91 | 1004.9 |
| 20260507082949 | 11 | 10 | 0.0 | 1.6 | 0.13 | 0.05 | 0.05 | 91 | 1004.9 |
| 20260507082445 | 11 | 0 | 1.6 | 1.6 | 0.13 | 0.05 | 0.05 | 90 | 1004.8 |
| 20260507081941 | 11 | 39 | 0.0 | 1.6 | 0.00 | 0.03 | 0.03 | 90 | 1004.6 |
| 20260507081438 | 11 | 7 | 0.0 | 0.0 | 0.00 | 0.03 | 0.03 | 89 | 1005.0 |
| 20260507080935 | 11 | 200 | 4.8 | 4.8 | 0.00 | 0.03 | 0.03 | 88 | 1005.2 |
| 20260507080425 | 11 | 343 | 1.6 | 1.6 | 0.00 | 0.03 | 0.03 | 88 | 1004.9 |
| 20260507075920 | 11 | 181 | 3.2 | 3.2 | 0.00 | 0.03 | 0.03 | 87 | 1004.7 |
| 20260507075416 | 11 | 4 | 1.6 | 1.6 | 0.00 | 0.03 | 0.03 | 87 | 1004.6 |
| 20260507074908 | 12 | 254 | 4.8 | 9.7 | 0.00 | 0.03 | 0.03 | 86 | 1004.8 |
| 20260507074405 | 12 | 343 | 1.6 | 1.6 | 0.00 | 0.03 | 0.03 | 84 | 1004.7 |
| 20260507073903 | 12 | 229 | 1.6 | 3.2 | 0.00 | 0.03 | 0.03 | 84 | 1004.6 |
| 20260507073359 | 12 | 358 | 1.6 | 1.6 | 0.00 | 0.03 | 0.03 | 84 | 1004.2 |
| 20260507072856 | 12 | 293 | 4.8 | 6.4 | 0.00 | 0.03 | 0.03 | 84 | 1004.2 |
| 20260507072353 | 12 | 6 | 0.0 | 1.6 | 0.00 | 0.03 | 0.03 | 85 | 1004.2 |
| 20260507071851 | 12 | 279 | 1.6 | 1.6 | 0.00 | 0.03 | 0.03 | 86 | 1004.1 |
| 20260507071348 | 12 | 283 | 6.4 | 9.7 | 0.00 | 0.03 | 0.03 | 86 | 1004.2 |
| 20260507070843 | 12 | 306 | 3.2 | 3.2 | 0.00 | 0.03 | 0.03 | 86 | 1004.3 |
| 20260507070341 | 12 | 1 | 1.6 | 3.2 | 0.00 | 0.03 | 0.03 | 86 | 1004.0 |
| 20260507065838 | 12 | 333 | 1.6 | 1.6 | 0.00 | 0.03 | 0.03 | 86 | 1004.5 |
| 20260507065335 | 12 | 219 | 3.2 | 3.2 | 0.00 | 0.03 | 0.03 | 86 | 1004.1 |
| 20260507064832 | 12 | 329 | 3.2 | 4.8 | 0.00 | 0.03 | 0.03 | 85 | 1004.2 |
| 20260507064330 | 12 | 294 | 3.2 | 4.8 | 0.00 | 0.03 | 0.03 | 84 | 1004.1 |
| 20260507063828 | 12 | 297 | 3.2 | 3.2 | 0.00 | 0.03 | 0.03 | 84 | 1004.1 |
| 20260507063324 | 12 | 309 | 3.2 | 4.8 | 0.00 | 0.03 | 0.03 | 84 | 1004.2 |
| 20260507062821 | 12 | 309 | 4.8 | 6.4 | 0.00 | 0.03 | 0.03 | 86 | 1004.2 |
| 20260507062318 | 13 | 181 | 1.6 | 3.2 | 0.00 | 0.03 | 0.03 | 89 | 1003.9 |
| 20260507061816 | 13 | 18 | 0.0 | 0.0 | 0.00 | 0.03 | 0.03 | 89 | 1003.8 |
| 20260507061314 | 13 | 49 | 1.6 | 1.6 | 0.00 | 0.03 | 0.03 | 90 | 1004.0 |
| 20260507060812 | 13 | 329 | 3.2 | 4.8 | 0.00 | 0.03 | 0.03 | 91 | 1004.2 |
| 20260507060308 | 13 | 358 | 0.0 | 1.6 | 0.00 | 0.03 | 0.03 | 91 | 1004.0 |
| 20260507055805 | 13 | 307 | 1.6 | 3.2 | 0.00 | 0.03 | 0.03 | 91 | 1004.1 |
| 20260507055300 | 13 | 340 | 1.6 | 3.2 | 0.00 | 0.03 | 0.03 | 91 | 1004.3 |
| 20260507054757 | 13 | 0 | 1.6 | 1.6 | 0.00 | 0.03 | 0.03 | 91 | 1004.6 |
| 20260507054253 | 13 | 208 | 4.8 | 6.4 | 0.00 | 0.03 | 0.03 | 91 | 1004.5 |
| 20260507053751 | 13 | 315 | 1.6 | 1.6 | 0.00 | 0.03 | 0.03 | 91 | 1004.5 |
| 20260507053248 | 13 | 333 | 1.6 | 3.2 | 0.00 | 0.03 | 0.03 | 91 | 1004.3 |
| 20260507052747 | 13 | 350 | 1.6 | 1.6 | 0.00 | 0.03 | 0.03 | 91 | 1004.1 |
| 20260507052243 | 13 | 348 | 1.6 | 3.2 | 0.00 | 0.03 | 0.03 | 90 | 1004.1 |
| 20260507051741 | 13 | 204 | 3.2 | 9.7 | 0.00 | 0.03 | 0.03 | 91 | 1004.2 |
| 20260507051238 | 13 | 18 | 3.2 | 3.2 | 0.00 | 0.03 | 0.03 | 92 | 1004.1 |
| 20260507050734 | 13 | 333 | 1.6 | 1.6 | 0.00 | 0.03 | 0.03 | 93 | 1004.2 |
| 20260507050232 | 14 | 0 | 1.6 | 1.6 | 0.00 | 0.03 | 0.03 | 94 | 1004.2 |
| 20260507045728 | 14 | 344 | 4.8 | 9.7 | 0.00 | 0.03 | 0.03 | 95 | 1004.1 |
| 20260507045224 | 15 | 243 | 6.4 | 9.7 | 0.00 | 0.03 | 0.03 | 96 | 1003.9 |
| 20260507044722 | 15 | 345 | 1.6 | 3.2 | 0.00 | 0.03 | 0.03 | 97 | 1003.9 |
| 20260507044218 | 15 | 1 | 1.6 | 3.2 | 0.00 | 0.03 | 0.03 | 97 | 1003.6 |
| 20260507043714 | 15 | 344 | 6.4 | 9.7 | 0.00 | 0.03 | 0.03 | 97 | 1003.9 |
| 20260507043211 | 15 | 337 | 1.6 | 1.6 | 0.00 | 0.03 | 0.03 | 97 | 1003.9 |
| 20260507042708 | 15 | 2 | 1.6 | 1.6 | 0.00 | 0.03 | 0.03 | 97 | 1003.8 |
| 20260507042203 | 15 | 354 | 1.6 | 1.6 | 0.18 | 0.03 | 0.03 | 97 | 1004.0 |
| 20260507041701 | 15 | 349 | 1.6 | 1.6 | 0.18 | 0.03 | 0.03 | 97 | 1004.0 |
| 20260507041156 | 15 | 355 | 1.6 | 1.6 | 0.00 | 0.00 | 0.00 | 97 | 1004.2 |
| 20260507040654 | 15 | 330 | 1.6 | 1.6 | 0.00 | 0.00 | 0.00 | 97 | 1004.1 |
| 20260507040150 | 15 | 329 | 1.6 | 1.6 | 0.00 | 0.00 | 0.00 | 96 | 1004.3 |
| 20260507035646 | 15 | 334 | 3.2 | 4.8 | 0.00 | 0.10 | 0.10 | 96 | 1004.1 |
| 20260507035142 | 15 | 239 | 3.2 | 3.2 | 0.00 | 0.10 | 0.10 | 96 | 1004.1 |
| 20260507034639 | 15 | 8 | 1.6 | 1.6 | 0.00 | 0.10 | 0.10 | 96 | 1003.9 |
| 20260507034137 | 15 | 7 | 1.6 | 1.6 | 0.00 | 0.10 | 0.10 | 95 | 1004.1 |
| 20260507033635 | 15 | 5 | 0.0 | 1.6 | 0.00 | 0.10 | 0.10 | 95 | 1003.8 |
| 20260507033132 | 15 | 331 | 6.4 | 6.4 | 0.00 | 0.10 | 0.10 | 95 | 1003.9 |
| 20260507032629 | 15 | 270 | 3.2 | 4.8 | 0.00 | 0.10 | 0.10 | 95 | 1003.7 |
| 20260507032124 | 15 | 211 | 3.2 | 4.8 | 0.00 | 0.10 | 0.10 | 95 | 1003.7 |
| 20260507031621 | 15 | 321 | 4.8 | 9.7 | 0.00 | 0.10 | 0.10 | 95 | 1003.6 |
| 20260507031113 | 15 | 9 | 1.6 | 1.6 | 0.00 | 0.10 | 0.10 | 95 | 1003.6 |
| 20260507030609 | 15 | 336 | 4.8 | 6.4 | 0.00 | 0.10 | 0.10 | 95 | 1003.4 |
| 20260507030107 | 15 | 324 | 3.2 | 4.8 | 0.00 | 0.10 | 0.10 | 95 | 1003.4 |
| 20260507025604 | 15 | 25 | 0.0 | 0.0 | 0.00 | 0.10 | 0.10 | 96 | 1003.3 |
| 20260507025100 | 15 | 345 | 1.6 | 1.6 | 0.00 | 0.10 | 0.10 | 96 | 1003.6 |
| 20260507024558 | 14 | 313 | 1.6 | 3.2 | 0.00 | 0.10 | 0.10 | 96 | 1003.7 |
| 20260507024050 | 14 | 112 | 1.6 | 3.2 | 0.00 | 0.10 | 0.10 | 96 | 1003.7 |
| 20260507023545 | 14 | 15 | 0.0 | 1.6 | 0.00 | 0.10 | 0.10 | 96 | 1003.6 |
| 20260507023043 | 14 | 18 | 1.6 | 1.6 | 0.00 | 0.10 | 0.10 | 96 | 1003.7 |
| 20260507022540 | 14 | 16 | 0.0 | 1.6 | 0.00 | 0.10 | 0.10 | 96 | 1003.7 |
| 20260507022035 | 14 | 2 | 3.2 | 3.2 | 0.00 | 0.10 | 0.10 | 96 | 1003.8 |
| 20260507021531 | 14 | 38 | 3.2 | 3.2 | 0.00 | 0.10 | 0.10 | 96 | 1004.0 |
| 20260507021028 | 14 | 302 | 1.6 | 4.8 | 0.00 | 0.10 | 0.10 | 96 | 1003.7 |
| 20260507020526 | 14 | 244 | 1.6 | 3.2 | 0.00 | 0.10 | 0.10 | 96 | 1003.6 |
| 20260507020022 | 14 | 27 | 0.0 | 1.6 | 0.00 | 0.10 | 0.10 | 95 | 1003.6 |
| 20260507015521 | 14 | 32 | 1.6 | 1.6 | 0.00 | 0.10 | 0.10 | 96 | 1003.8 |
| 20260507015018 | 14 | 321 | 1.6 | 3.2 | 0.00 | 0.10 | 0.10 | 96 | 1004.1 |
| 20260507014514 | 14 | 23 | 3.2 | 4.8 | 0.00 | 0.10 | 0.10 | 96 | 1003.8 |
| 20260507014010 | 14 | 61 | 1.6 | 3.2 | 0.00 | 0.10 | 0.10 | 96 | 1003.8 |
| 20260507013507 | 14 | 14 | 1.6 | 1.6 | 0.00 | 0.10 | 0.10 | 95 | 1003.8 |
| 20260507013004 | 14 | 25 | 0.0 | 1.6 | 0.00 | 0.10 | 0.10 | 96 | 1004.0 |
| 20260507012501 | 14 | 57 | 1.6 | 1.6 | 0.00 | 0.10 | 0.10 | 95 | 1004.1 |
| 20260507011957 | 13 | 349 | 1.6 | 1.6 | 0.00 | 0.10 | 0.10 | 96 | 1004.0 |
| 20260507011455 | 13 | 329 | 4.8 | 4.8 | 0.00 | 0.10 | 0.10 | 95 | 1004.1 |
| 20260507010950 | 13 | 73 | 1.6 | 1.6 | 0.00 | 0.10 | 0.10 | 96 | 1004.1 |
| 20260507010445 | 13 | 57 | 1.6 | 1.6 | 0.00 | 0.10 | 0.10 | 96 | 1004.1 |
| 20260507005942 | 13 | 24 | 0.0 | 0.0 | 0.00 | 0.10 | 0.10 | 96 | 1004.2 |
| 20260507005439 | 13 | 252 | 1.6 | 3.2 | 0.00 | 0.10 | 0.10 | 96 | 1004.0 |
| 20260507004936 | 13 | 298 | 1.6 | 3.2 | 0.00 | 0.10 | 0.10 | 96 | 1004.1 |
| 20260507004432 | 13 | 29 | 3.2 | 3.2 | 0.00 | 0.10 | 0.10 | 96 | 1004.1 |
| 20260507003930 | 13 | 40 | 1.6 | 3.2 | 0.00 | 0.10 | 0.10 | 96 | 1004.3 |
| 20260507003425 | 13 | 249 | 1.6 | 3.2 | 0.00 | 0.10 | 0.10 | 96 | 1004.2 |
| 20260507002920 | 13 | 142 | 4.8 | 6.4 | 0.00 | 0.10 | 0.10 | 96 | 1004.0 |
| 20260507002417 | 13 | 197 | 4.8 | 4.8 | 0.00 | 0.10 | 0.10 | 96 | 1004.2 |
| 20260507001914 | 13 | 237 | 4.8 | 6.4 | 0.00 | 0.10 | 0.10 | 96 | 1004.1 |
| 20260507001411 | 13 | 309 | 3.2 | 4.8 | 0.00 | 0.10 | 0.10 | 96 | 1003.8 |
| 20260507000908 | 13 | 114 | 3.2 | 4.8 | 0.18 | 0.10 | 0.10 | 96 | 1003.9 |
| 20260507000405 | 13 | 193 | 6.4 | 6.4 | 0.18 | 0.10 | 0.10 | 96 | 1003.8 |
| 20260506235859 | 13 | 172 | 6.4 | 6.4 | 0.00 | 0.08 | 0.08 | 96 | 1004.0 |
| 20260506235357 | 13 | 200 | 4.8 | 4.8 | 0.00 | 0.08 | 0.08 | 96 | 1004.1 |
| 20260506234852 | 13 | 142 | 3.2 | 9.7 | 0.13 | 0.08 | 0.08 | 96 | 1004.0 |
| 20260506234350 | 13 | 130 | 3.2 | 3.2 | 0.13 | 0.08 | 0.08 | 96 | 1004.0 |
| 20260506233848 | 13 | 53 | 3.2 | 3.2 | 0.00 | 0.05 | 0.05 | 96 | 1004.0 |
| 20260506233343 | 13 | 174 | 4.8 | 6.4 | 0.00 | 0.05 | 0.05 | 96 | 1003.9 |
| 20260506232841 | 13 | 7 | 1.6 | 3.2 | 0.00 | 0.05 | 0.05 | 96 | 1003.9 |
| 20260506232337 | 13 | 145 | 6.4 | 6.4 | 0.00 | 0.05 | 0.05 | 96 | 1003.9 |
| 20260506231833 | 13 | 57 | 3.2 | 4.8 | 0.00 | 0.05 | 0.05 | 96 | 1004.0 |
| 20260506231331 | 13 | 135 | 8.0 | 11.3 | 0.00 | 0.05 | 0.05 | 95 | 1004.1 |
| 20260506230828 | 13 | 204 | 6.4 | 12.9 | 0.00 | 0.05 | 0.05 | 96 | 1003.9 |
| 20260506230325 | 13 | 148 | 3.2 | 4.8 | 0.00 | 0.05 | 0.05 | 96 | 1004.0 |
| 20260506225821 | 13 | 236 | 6.4 | 9.7 | 0.00 | 0.05 | 0.05 | 96 | 1004.0 |
| 20260506225318 | 13 | 196 | 4.8 | 6.4 | 0.00 | 0.05 | 0.05 | 96 | 1004.0 |
| 20260506224815 | 13 | 182 | 8.0 | 9.7 | 0.18 | 0.05 | 0.05 | 95 | 1004.2 |
| 20260506224312 | 13 | 114 | 4.8 | 9.7 | 0.18 | 0.05 | 0.05 | 95 | 1004.1 |
| 20260506223809 | 13 | 175 | 4.8 | 9.7 | 0.00 | 0.03 | 0.03 | 95 | 1004.3 |
| 20260506223303 | 13 | 162 | 3.2 | 4.8 | 0.00 | 0.03 | 0.03 | 95 | 1004.2 |
| 20260506222800 | 13 | 294 | 3.2 | 3.2 | 0.00 | 0.03 | 0.03 | 95 | 1004.2 |
| 20260506222256 | 14 | 169 | 3.2 | 4.8 | 0.00 | 0.03 | 0.03 | 94 | 1004.4 |
| 20260506221749 | 14 | 31 | 3.2 | 3.2 | 0.00 | 0.03 | 0.03 | 94 | 1004.3 |
| 20260506221246 | 14 | 47 | 6.4 | 6.4 | 0.00 | 0.03 | 0.03 | 94 | 1004.5 |
| 20260506220744 | 14 | 116 | 3.2 | 4.8 | 0.00 | 0.03 | 0.03 | 94 | 1004.4 |
| 20260506220238 | 14 | 185 | 8.0 | 12.9 | 0.00 | 0.03 | 0.03 | 93 | 1004.6 |
| 20260506215736 | 15 | 304 | 6.4 | 6.4 | 0.00 | 0.03 | 0.03 | 93 | 1004.7 |
| 20260506215231 | 15 | 126 | 4.8 | 6.4 | 0.00 | 0.03 | 0.03 | 93 | 1004.7 |
| 20260506214728 | 15 | 78 | 3.2 | 3.2 | 0.00 | 0.03 | 0.03 | 92 | 1004.7 |
| 20260506214225 | 15 | 137 | 6.4 | 11.3 | 0.00 | 0.03 | 0.03 | 92 | 1004.8 |
| 20260506213723 | 15 | 140 | 6.4 | 11.3 | 0.00 | 0.03 | 0.03 | 91 | 1004.8 |
| 20260506213219 | 15 | 245 | 3.2 | 4.8 | 0.00 | 0.03 | 0.03 | 91 | 1004.7 |
| 20260506212717 | 15 | 163 | 9.7 | 14.5 | 0.00 | 0.03 | 0.03 | 91 | 1004.9 |
| 20260506212212 | 15 | 29 | 3.2 | 4.8 | 0.00 | 0.03 | 0.03 | 91 | 1004.8 |
| 20260506211702 | 15 | 75 | 3.2 | 4.8 | 0.00 | 0.03 | 0.03 | 90 | 1004.9 |
| 20260506211159 | 15 | 114 | 6.4 | 9.7 | 0.00 | 0.03 | 0.03 | 90 | 1004.9 |
| 20260506210656 | 15 | 151 | 6.4 | 6.4 | 0.00 | 0.03 | 0.03 | 90 | 1005.1 |
| 20260506210153 | 15 | 227 | 4.8 | 4.8 | 0.00 | 0.03 | 0.03 | 89 | 1004.8 |
| 20260506205650 | 15 | 117 | 6.4 | 6.4 | 0.13 | 0.03 | 0.03 | 89 | 1005.1 |
| 20260506205149 | 15 | 64 | 1.6 | 3.2 | 0.13 | 0.03 | 0.03 | 88 | 1005.2 |
| 20260506204648 | 15 | 52 | 3.2 | 6.4 | 0.00 | 0.00 | 0.00 | 87 | 1005.1 |